Chadron, NE

5:38 AM MDT on March 29, 2017 (GMT -0600)
Chadron Municipal

Weather History for KCDR - June, 2013

Change the Weather History Date:

Friday, June 21, 2013

  Actual Average Record
Temperature  
Mean Temperature 71 °F 68 °F  
Max Temperature 84 °F 83 °F 107 °F (2016)
Min Temperature 57 °F 52 °F 39 °F (2001)
Degree Days  
Heating Degree Days 0 2  
Month to date heating degree days 58 70  
Since 1 June heating degree days 58 70  
Since 1 July heating degree days 6873 7135  
Cooling Degree Days 6 4  
Month to date cooling degree days 54 57  
Year to date cooling degree days 82 77  
Since 1 June cooling degree days 54 57  
Growing Degree Days 21 (Base 50)    
Moisture  
Dew Point 61 °F    
Average Humidity 79    
Maximum Humidity 100    
Minimum Humidity 58    
Precipitation  
Precipitation 0.86 in 0.09 in 3.03 in (1947)
Month to date precipitation 2.34 2.44  
Year to date precipitation 8.56 9.38  
Sea Level Pressure  
Sea Level Pressure 29.85 in    
Wind  
Wind Speed 8 mph (NE)    
Max Wind Speed 31 mph    
Max Gust Speed 39 mph    
Visibility 8 miles    
Events Rain , Thunderstorm    
T = Trace of Precipitation, MM = Missing Value Source: NWS Daily Summary

Daily Weather History Graph

Daily Weather History Graph

Search for Another Location

Airport or City:

Trip Planner

Search our weather history database for the weather conditions in past years. The results will help you decide how hot, cold, wet, or windy it might be!

Date:

Astronomy

Jun. 21, 2013 Rise Set
Actual Time 5:13 AM MDT 8:34 PM MDT
Civil Twilight 4:38 AM MDT 9:09 PM MDT
Nautical Twilight 3:52 AM MDT 9:55 PM MDT
Astronomical Twilight 2:56 AM MDT 10:52 PM MDT
Moon 6:46 PM MDT (6/21) 3:33 AM MDT (6/21)
Length of Visible Light 16h 31m
Length of Day
15h 20m
Waxing Gibbous, 95% of the Moon is Illuminated
Jun 21
Waxing Gibbous
Jun 23
Full
Jun 29
Last Quarter
Jul 8
New
Jul 15
First Quarter

Hourly Weather History & Observations

Time (MDT) Temp. Heat Index Dew Point Humidity Pressure Visibility Wind Dir Wind Speed Gust Speed Precip Events Conditions
12:53 AM 61.0 °F - 57.9 °F 90% 29.81 in 10.0 mi Calm Calm - N/A   Clear
1:53 AM 62.1 °F - 57.9 °F 86% 29.79 in 10.0 mi NE 4.6 mph - N/A   Clear
2:53 AM 63.0 °F - 59.0 °F 87% 29.77 in 10.0 mi East 3.5 mph - N/A   Clear
3:53 AM 62.1 °F - 57.9 °F 86% 29.78 in 10.0 mi East 4.6 mph - N/A   Clear
4:53 AM 60.1 °F - 57.9 °F 93% 29.79 in 10.0 mi North 4.6 mph - N/A   Clear
5:41 AM 60.8 °F - 59.0 °F 94% 29.86 in 10.0 mi Calm Calm - N/A   Mostly Cloudy
5:53 AM 61.0 °F - 60.1 °F 97% 29.80 in 10.0 mi Calm Calm - N/A   Overcast
6:23 AM 62.6 °F - 60.8 °F 94% 29.87 in 10.0 mi Calm Calm - N/A   Overcast
6:53 AM 63.0 °F - 61.0 °F 93% 29.81 in 9.0 mi NW 3.5 mph - N/A   Overcast
7:53 AM 64.9 °F - 63.0 °F 93% 29.80 in 3.0 mi NNE 4.6 mph - N/A   Overcast
8:11 AM 64.4 °F - 64.4 °F 100% 29.86 in 2.0 mi NE 5.8 mph - N/A   Overcast
8:16 AM 64.4 °F - 64.4 °F 100% 29.86 in 1.8 mi NNE 6.9 mph - N/A   Overcast
8:31 AM 66.2 °F - 64.4 °F 94% 29.86 in 2.5 mi NNE 6.9 mph - N/A   Overcast
8:39 AM 64.4 °F - 64.4 °F 100% 29.86 in 4.0 mi North 8.1 mph - N/A   Overcast
8:49 AM 66.2 °F - 64.4 °F 94% 29.87 in 5.0 mi North 5.8 mph - N/A   Overcast
8:53 AM 66.0 °F - 64.0 °F 93% 29.81 in 6.0 mi North 5.8 mph - N/A   Overcast
9:53 AM 66.9 °F - 64.0 °F 90% 29.82 in 9.0 mi North 12.7 mph - N/A   Overcast
10:05 AM 66.2 °F - 62.6 °F 88% 29.88 in 10.0 mi NNE 10.4 mph - N/A   Overcast
10:53 AM 68.0 °F - 63.0 °F 84% 29.84 in 10.0 mi NE 4.6 mph - N/A   Overcast
11:04 AM 69.8 °F - 62.6 °F 78% 29.88 in 10.0 mi ENE 9.2 mph - N/A   Overcast
11:53 AM 70.0 °F - 64.0 °F 81% 29.83 in 10.0 mi ENE 8.1 mph - N/A   Overcast
12:53 PM 75.0 °F - 66.0 °F 73% 29.81 in 10.0 mi East 8.1 mph - N/A   Overcast
1:53 PM 79.0 °F - 66.9 °F 66% 29.78 in 10.0 mi NE 5.8 mph - N/A   Overcast
2:32 PM 82.4 °F 84.6 °F 66.2 °F 58% 29.82 in 10.0 mi Variable 4.6 mph - N/A   Mostly Cloudy
2:53 PM 82.0 °F 84.9 °F 68.0 °F 62% 29.75 in 10.0 mi NE 10.4 mph - N/A   Scattered Clouds
3:53 PM 81.0 °F 83.3 °F 66.9 °F 62% 29.75 in 10.0 mi ENE 11.5 mph - N/A   Mostly Cloudy
4:48 PM 73.4 °F - 62.6 °F 69% 29.84 in 10.0 mi NNE 23.0 mph 36.8 mph N/A Thunderstorm Scattered Clouds
4:53 PM 72.0 °F - 63.0 °F 73% 29.81 in 10.0 mi NNE 13.8 mph 36.8 mph N/A Thunderstorm Thunderstorm
5:03 PM 68.0 °F - 64.4 °F 88% 29.83 in 1.8 mi North 27.6 mph 34.5 mph 0.08 in Rain , Thunderstorm Heavy Thunderstorms and Rain
5:19 PM 66.2 °F - 62.6 °F 88% 29.86 in 3.0 mi North 21.9 mph 29.9 mph 0.18 in Rain , Thunderstorm Light Thunderstorms and Rain
5:36 PM 66.2 °F - 62.6 °F 88% 29.86 in 6.0 mi NNE 20.7 mph 35.7 mph 0.21 in Rain , Thunderstorm Light Thunderstorms and Rain
5:44 PM 66.2 °F - 62.6 °F 88% 29.87 in 10.0 mi NNE 11.5 mph 28.8 mph 0.21 in Rain Light Rain
5:53 PM 66.9 °F - 63.0 °F 87% 29.85 in 10.0 mi NNE 15.0 mph 20.7 mph 0.21 in   Mostly Cloudy
6:03 PM 66.2 °F - 62.6 °F 88% 29.90 in 10.0 mi NNE 15.0 mph 21.9 mph N/A   Mostly Cloudy
6:12 PM 66.2 °F - 62.6 °F 88% 29.91 in 10.0 mi ENE 15.0 mph 21.9 mph N/A Thunderstorm Mostly Cloudy
6:46 PM 66.2 °F - 62.6 °F 88% 29.93 in 1.8 mi East 17.3 mph 26.5 mph 0.25 in Rain , Thunderstorm Heavy Thunderstorms and Rain
6:53 PM 63.0 °F - 61.0 °F 93% 29.89 in 1.2 mi East 27.6 mph 38.0 mph 0.43 in Rain , Thunderstorm Heavy Thunderstorms and Rain
6:57 PM 62.6 °F - 57.2 °F 82% 29.91 in 1.5 mi East 31.1 mph 39.1 mph 0.04 in Rain , Thunderstorm Heavy Thunderstorms and Rain
7:04 PM 64.4 °F - 55.4 °F 73% 29.91 in 3.0 mi ESE 11.5 mph 39.1 mph 0.10 in Rain , Thunderstorm Heavy Thunderstorms and Rain
7:27 PM 62.6 °F - 55.4 °F 77% 29.90 in 9.0 mi East 15.0 mph 19.6 mph 0.17 in Rain Light Rain
7:53 PM 62.1 °F - 55.0 °F 78% 29.91 in 10.0 mi East 10.4 mph 20.7 mph 0.17 in   Partly Cloudy
8:53 PM 61.0 °F - 57.9 °F 90% 29.89 in 9.0 mi NE 12.7 mph - 0.05 in Rain Light Rain
9:03 PM 62.6 °F - 57.2 °F 82% 29.91 in 10.0 mi ENE 16.1 mph - 0.00 in   Mostly Cloudy
9:53 PM 61.0 °F - 55.9 °F 83% 29.84 in 10.0 mi NE 6.9 mph - 0.00 in   Clear
10:53 PM 66.0 °F - 51.1 °F 59% 29.81 in 10.0 mi NE 16.1 mph 23.0 mph N/A   Clear
11:01 PM 62.6 °F - 53.6 °F 72% 29.88 in 10.0 mi North 15.0 mph - N/A   Clear
11:53 PM 59.0 °F - 55.9 °F 90% 29.87 in 10.0 mi East 4.6 mph - N/A   Clear